Regional Weather Roundup
Issued by NWS

Home | Current Version | Previous Version | Text Only | Print | Product List | Glossary Off
Versions: 1 2 3 4 5 6 7 8 9 10 11 12 13 14 15 16 17 18 19 20 21 22 23 24 25 26 27 28 29 30 31 32 33 34 35 36 37 38 39 40 41 42 43 44 45 46 47 48 49 50

000
ASUS43 KDMX 110608
RWRIA

WEATHER ROUNDUP FOR IOWA
NATIONAL WEATHER SERVICE DES MOINES IA
1200 AM CST THU FEB 11 2016

NOTE: "FAIR" INDICATES FEW OR NO CLOUDS BELOW 12,000 FEET WITH NO
SIGNIFICANT WEATHER AND/OR OBSTRUCTIONS TO VISIBILITY.

* - THESE STATIONS ARE NOT NWS STATIONS...THUS NOT UNDER NWS
QUALITY CONTROL.  THEY ALSO DO NOT REPORT WEATHER SUCH
AS PRECIPITATION OR FOG.

IAZ001>003-012>014-020>022-031>034-043>046-110700-
   NORTHWEST IOWA

CITY           SKY/WX    TMP DP  RH WIND       PRES   REMARKS
CARROLL *      CLOUDY    12   7  79 NE10      30.22R WCI  -1
CHEROKEE *     CLOUDY    14  10  83 NE6       30.22F WCI   5
DENISON *      CLOUDY    14  10  85 NE14      30.19R WCI  -1
LE MARS *      CLOUDY    16  12  86 E5G12     30.24S WCI   9
ORANGE CITY *  CLOUDY    12  10  92 E7        30.20F WCI   2
SHELDON *      CLOUDY    12   7  79 NE10      30.20F WCI  -1
SIOUX CITY     CLOUDY    19  11  70 NE6       30.23R WCI  11
6HR MIN TEMP:  19; 6HR MAX TEMP:  21;

SPENCER        CLOUDY    11   3  70 NE8       30.22R WCI  -1
6HR MIN TEMP:  11; 6HR MAX TEMP:  13;

STORM LAKE *   CLOUDY    12  10  92 NE12      30.20R WCI  -2
$$

IAZ055>058-069>071-079>083-090>094-110700-
   SOUTHWEST IOWA

CITY           SKY/WX    TMP DP  RH WIND       PRES   REMARKS
ATLANTIC *     CLOUDY    18  14  86 NE10      30.19R WCI   6
AUDUBON *      MOCLDY    12   9  85 NE9       30.20R WCI   0
CLARINDA *     CLOUDY    23  19  86 NE7       30.19R WCI  15
COUNCIL BLFS * CLOUDY    19  16  86 NE9       30.18R WCI   9
CRESTON *      CLOUDY    18  14  86 E12       30.17R WCI   5
HARLAN  *      MOCLDY    16  12  86 NE10      30.23R WCI   3
LAMONI         CLOUDY    20  15  81 NE8       30.16R WCI  10
6HR MIN TEMP:  19; 6HR MAX TEMP:  24;

RED OAK *      CLOUDY    21  19  93 NE10      30.18R WCI  10
SHENANDOAH *   CLOUDY    23  23 100 NE9       30.17R WCI  13
$$

IAZ047>049-059>061-072>074-084-110700-
   CENTRAL IOWA

CITY           SKY/WX    TMP DP  RH WIND       PRES   REMARKS
AMES           CLOUDY    12   3  67 NE7       30.23R WCI   1
6HR MIN TEMP:  12; 6HR MAX TEMP:  15;

ANKENY *       CLOUDY    12   7  79 N6        30.24R WCI   3
BOONE *        CLOUDY    10   3  72 NE12      30.21S WCI  -4
CHARITON *     CLOUDY    19  14  79 NE12      30.18R WCI   7
DES MOINES     MOCLDY    16   8  71 NE8       30.23R WCI   5
6HR MIN TEMP:  16; 6HR MAX TEMP:  19; 6HR PCP: TRACE;

GRINNELL*      CLOUDY    14   5  67 N10       30.21R WCI   1
KNOXVILLE *    CLOUDY    16   9  73 N6        30.20R WCI   7
MARSHALLTOWN   CLOUDY     7   0  73 N5        30.22R WCI  -2
6HR MIN TEMP:   7; 6HR MAX TEMP:  14;

NEWTON *       CLOUDY    14   5  67 N13       30.22R WCI   0
PELLA *        CLOUDY    16   8  70 CALM      30.23R
$$

IAZ004>006-015-016-023>025-035-036-110700-
   NORTH CENTRAL IOWA

CITY           SKY/WX    TMP DP  RH WIND       PRES   REMARKS
ALGONA *       CLOUDY    10   5  79 N8        30.22S WCI  -1
CLARION *      PTCLDY     1  -4  78 N5        30.23S WCI  -8
ESTHERVILLE    CLOUDY     8   3  80 N8        30.22S WCI  -4
6HR MIN TEMP:   6; 6HR MAX TEMP:  11;

FORT DODGE *   CLOUDY    10   1  67 NE5       30.24R WCI   2
MASON CITY     CLOUDY     4  -1  80 N6        30.24R WCI  -7
6HR MIN TEMP:   1; 6HR MAX TEMP:   7;

FOREST CITY *  PTCLDY     9   0  66 N5        30.23R WCI   0
WEBSTER CITY * CLOUDY    10   1  67 NE10      30.21R WCI  -3
IOWA FALLS *     N/A      7   0  72 N3        30.23R
$$

IAZ007>011-017>019-026>030-037>042-050>054-066-110700-
   NORTHEAST IOWA

CITY           SKY/WX    TMP DP  RH WIND       PRES   REMARKS
CEDAR RAPIDS   CLEAR     10   2  69 N7        30.20R WCI  -1
6HR MIN TEMP:  10; 6HR MAX TEMP:  15;

CHARLES CITY * CLOUDY     3  -4  72 NW3       30.23R
CLINTON *      CLOUDY    13   4  67 N8        30.21R WCI   2
DECORAH *      CLOUDY     7  -2  66 N7        30.20S WCI  -5
DUBUQUE        CLOUDY    11   1  64 N7        30.18R WCI   0
6HR MIN TEMP:   8; 6HR MAX TEMP:  11;

MONTICELLO *   CLOUDY    12   0  57 N6        30.20S WCI   3
OELWEIN *      MOCLDY     5  -2  72 N7        30.21S WCI  -7
WATERLOO       CLOUDY     4  -3  73 N8        30.24R WCI  -9
6HR MIN TEMP:   4; 6HR MAX TEMP:  10;

$$

IAZ064-065-067-068-078-110700-
   EAST CENTRAL IOWA

CITY           SKY/WX    TMP DP  RH WIND       PRES   REMARKS
DAVENPORT      MOCLDY    10   3  73 N5        30.20S WCI   2
6HR MIN TEMP:   8; 6HR MAX TEMP:  16;

IOWA CITY      CLEAR     13   2  61 N6        30.24R WCI   4
6HR MIN TEMP:  13; 6HR MAX TEMP:  18;

MT. PLEASANT * CLOUDY    20  12  71 N12       30.20R WCI   8
MUSCATINE *    CLOUDY    16   3  57 N9        30.23S WCI   4
QUAD CITIES    PTCLDY    13   2  61 CALM      30.21R
6HR MIN TEMP:  13; 6HR MAX TEMP:  18;

$$

IAZ062-063-075>077-085>089-095>099-110700-
   SOUTHEAST IOWA

CITY           SKY/WX    TMP DP  RH WIND       PRES   REMARKS
BURLINGTON     CLOUDY    19  11  70 N7        30.19R WCI  10
6HR MIN TEMP:  18; 6HR MAX TEMP:  19;

FAIRFIELD *    CLOUDY    18   9  68 N8        30.20R WCI   7
FORT MADISON * CLOUDY    18  12  79 N5        30.19S WCI  11
KEOKUK *       CLOUDY    19  16  86 N5        30.18R WCI  13
OSKALOOSA *    CLOUDY    17   9  73 N8        30.22R WCI   6
CENTERVILLE *  CLOUDY    18  16  93 CALM      30.18R
OTTUMWA        CLOUDY    17  11  77 N7        30.20R WCI   8
6HR MIN TEMP:  17; 6HR MAX TEMP:  19;

WASHINGTON *   CLOUDY    16   5  62 N10       30.22R WCI   3
$$

ABBREVIATIONS USED IN REMARKS
   TC - TEMPERATURES IN CELSIUS
  WCI - WIND CHILL INDEX
   HX - HEAT INDEX
  VSB - VISIBILITY
$$




USA.gov is the U.S. government's official web portal to all federal, state and local government web resources and services.